[[{"header":{"parameterUnit":"m.s-1","parameterCategory":1,"la1":30.2992,"la2":30.254,"lo1":-89.0895,"lo2":-89.0443,"dy":0.0025,"dx":0.0025,"nx":19,"ny":19,"refTime":"2026-03-25T09:00:00:Z","depth":0,"parameterNumber":2,"parameterNumberName":"U-component_of_WINDS"},"data":[0,0,0,-4.4949,-4.4956,-4.5338,-4.534,-4.5804,-4.5808,0,0,0,0,0,0,0,0,0,0,0,-4.482,-4.4823,-4.4948,-4.4957,-4.5338,-4.534,-4.5803,-4.5808,0,0,0,0,0,0,0,0,0,0,0,-4.4819,-4.4822,-4.4825,-4.4959,-4.5338,-4.534,-4.5802,-4.5523,0,0,0,0,0,0,0,0,0,0,-4.5157,-4.5022,-4.4821,-4.4825,-4.4961,-4.5338,-4.534,-4.551,-4.5541,-4.5621,0,-4.5687,0,-4.5755,-4.5837,-4.5839,0,0,0,-4.4969,-4.4997,-4.5114,-4.4826,-4.4964,-4.5337,-4.517,-4.5527,-4.5562,-4.5661,-4.5694,-4.5712,-4.5763,-4.584,-4.5842,-4.6267,-4.6269,0,0,-4.4947,-4.488,-4.509,-4.5136,-4.5075,-4.5157,-4.5181,-4.5549,-4.558,-4.5696,-4.5723,-4.577,-4.5843,-4.5846,-4.6266,-4.6268,0,0,0,-4.4879,-4.4865,-4.4974,-4.5116,-4.5186,-4.5168,-4.5196,-4.5564,-4.5605,-4.5728,-4.5776,-4.5846,-4.5851,-4.6264,-4.6267,-4.6272,0,0,0,-4.4867,-4.4825,-4.4964,-4.4926,-4.5179,-4.538,-4.5202,-4.5579,-4.5623,-4.5773,-4.5846,-4.5855,-4.6263,-4.6266,-4.6268,-4.6284,0,0,0,-4.4801,-4.4817,-4.4867,-4.4922,-4.5084,-4.5375,-4.5438,-4.559,-4.5652,-4.5839,-4.5856,-4.6262,-4.6265,-4.6265,-4.6279,-4.6376,0,0,0,-4.4709,-4.4865,-4.4866,-4.506,-4.508,-4.5376,-4.5436,-4.5661,-4.5822,-4.5848,-4.6263,-4.6266,-4.6264,-4.6276,-4.6372,-4.6442,-4.6466,0,0,-4.4868,-4.4881,-4.5001,-4.5014,-4.5292,-4.5324,-4.5605,-4.5816,-4.5896,-4.6139,-4.6151,-4.6269,-4.6279,-4.6375,-4.6628,-4.6646,0,0,0,-4.5028,-4.5112,-4.5202,-4.5353,-4.552,-4.5665,-4.5842,-4.5922,-4.6132,-4.6007,-4.6334,-4.6342,-4.6401,-4.6437,-4.6453,-4.6508,-4.6281,-4.6281,-4.6281,-4.515,-4.5247,-4.5452,-4.5595,-4.5742,-4.5926,-4.6055,-4.6193,-4.6245,-4.6322,-4.6392,-4.6535,-4.6575,-4.6587,-4.6643,-4.6441,-4.6441,-4.6441,-4.6441,-4.5389,-4.5523,-4.5596,-4.5818,-4.5921,-4.611,-4.6296,-4.6328,-4.6519,-4.6488,-4.6545,-4.6499,-4.6604,-4.6659,-4.6442,-4.6442,-4.6442,-4.6442,-4.6442,-4.5477,-4.5558,-4.5655,-4.5888,-4.6058,-4.62,-4.6382,-4.6469,-4.6552,-4.6609,-4.6694,-4.6694,-4.6703,-4.6645,-4.6645,-4.6646,-4.6646,-4.6647,-4.6647,-4.5527,-4.5637,-4.5779,-4.5975,-4.6086,-4.6245,-4.6436,-4.6549,-4.6696,-4.6745,-4.6746,-4.679,-4.6599,-4.6546,-4.6655,-4.6653,-4.6652,-4.6652,-4.6651,-4.5725,-4.5696,-4.5915,-4.6028,-4.6268,-4.6431,-4.6544,-4.6767,-4.6873,-4.6961,-4.6997,-4.6842,-4.6861,-4.6849,-4.6806,-4.6976,-4.6976,-4.6976,-4.6976,-4.5796,-4.5817,-4.6063,-4.6238,-4.6419,-4.6545,-4.6792,-4.6946,-4.7099,-4.7172,-4.7162,-4.7114,-4.7098,-4.7127,-4.7109,-4.707,-4.7304,-4.7304,-4.7304,-4.5923,-4.5967,-4.6158,-4.631,-4.6506,-4.6673,-4.6909,-4.7107,-4.7276,-4.732,-4.723,-4.7216,-4.7141,-4.7112,-4.7145,-4.7116,-4.7047,0,0]},{"header":{"parameterUnit":"m.s-1","parameterCategory":1,"la1":30.2992,"la2":30.254,"lo1":-89.0895,"lo2":-89.0443,"dy":0.0025,"dx":0.0025,"nx":19,"ny":19,"refTime":"2026-03-25T09:00:00:Z","depth":0,"parameterNumber":3,"parameterNumberName":"V-component_of_WINDS"},"data":[0,0,0,1.5827,1.5833,1.6132,1.6134,1.6466,1.6469,0,0,0,0,0,0,0,0,0,0,0,1.5706,1.5707,1.5827,1.5834,1.6132,1.6134,1.6466,1.6469,0,0,0,0,0,0,0,0,0,0,0,1.5706,1.5707,1.5708,1.5834,1.6132,1.6134,1.6465,1.6258,0,0,0,0,0,0,0,0,0,0,1.5976,1.5832,1.5707,1.5708,1.5836,1.6131,1.6134,1.6249,1.6271,1.6309,0,1.6331,0,1.6405,1.6487,1.6488,0,0,0,1.5858,1.5813,1.5923,1.5708,1.5838,1.6131,1.6004,1.6262,1.6286,1.6337,1.6337,1.635,1.641,1.6489,1.6491,1.6623,1.6623,0,0,1.5842,1.5743,1.5905,1.5937,1.5886,1.5995,1.6013,1.6277,1.6271,1.6338,1.6359,1.6416,1.6491,1.6493,1.6624,1.6623,0,0,0,1.5778,1.573,1.5835,1.5922,1.598,1.6003,1.6024,1.6259,1.6302,1.6363,1.642,1.6493,1.6496,1.6625,1.6624,1.65,0,0,0,1.5769,1.5693,1.5826,1.5768,1.5974,1.6123,1.5998,1.6283,1.6316,1.6418,1.6493,1.6499,1.6625,1.6624,1.6505,1.6457,0,0,0,1.5698,1.5685,1.5717,1.5762,1.5887,1.6121,1.6179,1.6293,1.6349,1.6489,1.65,1.6626,1.6624,1.6509,1.6465,1.6464,0,0,0,1.5594,1.5601,1.5713,1.5744,1.5884,1.6041,1.6179,1.6301,1.6406,1.6494,1.6625,1.6624,1.651,1.6469,1.6467,1.6444,1.6424,0,0,1.5548,1.5592,1.5619,1.5728,1.5839,1.6004,1.61,1.629,1.6395,1.6542,1.6547,1.6503,1.6465,1.6464,1.6354,1.6337,0,0,0,1.5571,1.5588,1.564,1.5735,1.588,1.6002,1.6189,1.6261,1.6391,1.6449,1.6506,1.6487,1.649,1.6484,1.647,1.648,1.6617,1.6617,1.6617,1.5361,1.5496,1.5551,1.5721,1.5812,1.6006,1.6093,1.6224,1.6332,1.6343,1.6387,1.6303,1.6292,1.6282,1.6291,1.6387,1.6386,1.6386,1.6386,1.5307,1.5353,1.5501,1.5605,1.5749,1.584,1.6029,1.6104,1.6211,1.6281,1.6291,1.6354,1.626,1.6275,1.6378,1.6379,1.638,1.6381,1.6381,1.5183,1.5229,1.5317,1.547,1.5575,1.575,1.5847,1.5975,1.6096,1.6106,1.6168,1.617,1.6188,1.6127,1.6127,1.6126,1.6126,1.6126,1.6126,1.502,1.5123,1.5187,1.5346,1.5425,1.5547,1.5746,1.5829,1.5954,1.604,1.6042,1.6149,1.6226,1.6242,1.6122,1.6123,1.6123,1.6123,1.6124,1.4911,1.4958,1.5056,1.5136,1.5335,1.5431,1.5596,1.5755,1.5843,1.5887,1.5996,1.6031,1.6086,1.6098,1.6112,1.5965,1.5965,1.5965,1.5965,1.4806,1.4847,1.4979,1.5099,1.5232,1.5392,1.5503,1.566,1.5829,1.5893,1.5934,1.5964,1.5971,1.6022,1.6035,1.6051,1.5892,1.5892,1.5892,1.4747,1.4808,1.4875,1.5041,1.5208,1.5349,1.5459,1.5593,1.5796,1.5892,1.5946,1.5949,1.6,1.6009,1.6101,1.6119,1.615,0,0]}]]